Change the Weather History Date:

Saturday, January 25, 2014

  Actual Average Record
Temperature  
Mean Temperature 8 °F -  
Max Temperature 17 °F 24 °F 45 °F (1981)
Min Temperature 0 °F 7 °F -13 °F (1991)
Degree Days  
Heating Degree Days 56    
Moisture  
Dew Point 3 °F    
Average Humidity 88    
Maximum Humidity 100    
Minimum Humidity 73    
Precipitation  
Precipitation 0.01 in - - ()
Sea Level Pressure  
Sea Level Pressure 29.35 in    
Wind  
Wind Speed 12 mph (NW)    
Max Wind Speed 26 mph    
Max Gust Speed 38 mph    
Visibility 2 miles    
Events      
Averages and records for this station are not official NWS values.
T = Trace of Precipitation, MM = Missing Value Source: NWS Daily Summary

Daily Weather History Graph

Daily Weather History Graph

Search for Another Location

Airport or City:

Trip Planner

Search our weather history database for the weather conditions in past years. The results will help you decide how hot, cold, wet, or windy it might be!

Date:

Astronomy

Jan. 25, 2014 Rise Set
Actual Time 8:08 AM EST 5:32 PM EST
Civil Twilight 7:35 AM EST 6:05 PM EST
Nautical Twilight 6:59 AM EST 6:41 PM EST
Astronomical Twilight 6:23 AM EST 7:17 PM EST
Moon 2:38 AM EST (1/25) 12:32 PM EST (1/25)
Length of Visible Light 10h 29m
Length of Day
9h 23m
Waning Crescent, 34% of the Moon is Illuminated
Jan 25
Waning Crescent
Jan 30
New
Feb 6
First Quarter
Feb 14
Full
Feb 22
Last Quarter

Hourly Weather History & Observations

Time (EST) Temp. Windchill Dew Point Humidity Pressure Visibility Wind Dir Wind Speed Gust Speed Precip Events Conditions
12:15 AM 17.6 °F 9.3 °F 17.6 °F 100% 29.15 in 3.0 mi SW 5.8 mph - N/A   Overcast
12:35 AM 17.6 °F 9.3 °F 17.6 °F 100% 29.13 in 2.0 mi SW 5.8 mph - 0.01 in   Overcast
12:55 AM 17.6 °F 10.7 °F 15.8 °F 93% 29.12 in 10.0 mi SW 4.6 mph - 0.01 in   Scattered Clouds
1:15 AM 15.8 °F 8.6 °F 14.0 °F 93% 29.12 in 10.0 mi SW 4.6 mph - N/A   Clear
1:35 AM 15.8 °F 7.2 °F 15.8 °F 100% 29.11 in 10.0 mi SW 5.8 mph - N/A   Partly Cloudy
1:55 AM 15.8 °F 8.6 °F 15.8 °F 100% 29.10 in 10.0 mi SW 4.6 mph - N/A   Mostly Cloudy
2:15 AM 15.8 °F 6.1 °F 15.8 °F 100% 29.10 in 10.0 mi WSW 6.9 mph - N/A   Mostly Cloudy
2:35 AM 15.8 °F 2.1 °F 14.0 °F 93% 29.10 in 5.0 mi WSW 12.7 mph 16.1 mph N/A   Overcast
2:55 AM 15.8 °F 0.9 °F 15.8 °F 100% 29.10 in 3.0 mi WNW 15.0 mph 25.3 mph N/A   Overcast
3:15 AM 17.6 °F -0.6 °F 15.8 °F 93% 29.10 in 1.2 mi NW 25.3 mph 33.4 mph N/A   Overcast
3:35 AM 17.6 °F 0.5 °F 15.8 °F 93% 29.11 in 1.0 mi NW 21.9 mph 31.1 mph N/A   Overcast
3:55 AM 15.8 °F -2.7 °F 14.0 °F 93% 29.12 in 2.0 mi NW 24.2 mph 35.7 mph N/A   Overcast
4:15 AM 15.8 °F -3.4 °F 10.4 °F 79% 29.12 in 2.0 mi NW 26.5 mph 38.0 mph N/A   Overcast
4:35 AM 14.0 °F -3.0 °F 8.6 °F 79% 29.14 in 4.0 mi NW 18.4 mph 29.9 mph N/A   Scattered Clouds
4:55 AM 12.2 °F -6.7 °F 8.6 °F 85% 29.15 in 5.0 mi NW 21.9 mph 28.8 mph N/A   Partly Cloudy
5:15 AM 12.2 °F -7.1 °F 8.6 °F 85% 29.16 in 3.0 mi NW 23.0 mph 28.8 mph N/A   Mostly Cloudy
5:35 AM 12.2 °F -7.1 °F 8.6 °F 85% 29.17 in 1.5 mi NW 23.0 mph 33.4 mph N/A   Overcast
5:55 AM 10.4 °F -8.6 °F 8.6 °F 92% 29.19 in 7.0 mi WNW 20.7 mph 27.6 mph N/A   Overcast
6:15 AM 10.4 °F -8.2 °F 6.8 °F 85% 29.19 in 6.0 mi NW 19.6 mph 23.0 mph N/A   Overcast
6:35 AM 10.4 °F -7.7 °F 3.2 °F 73% 29.21 in 9.0 mi NW 18.4 mph 29.9 mph N/A   Mostly Cloudy
6:55 AM 10.4 °F -8.2 °F 3.2 °F 73% 29.22 in 6.0 mi WNW 19.6 mph 25.3 mph N/A   Mostly Cloudy
7:15 AM 8.6 °F -10.0 °F 6.8 °F 92% 29.23 in 3.0 mi WNW 18.4 mph 26.5 mph N/A   Overcast
7:35 AM 8.6 °F -8.9 °F 5.0 °F 85% 29.24 in 5.0 mi WNW 16.1 mph 24.2 mph N/A   Overcast
7:55 AM 6.8 °F -11.3 °F 3.2 °F 85% 29.26 in 2.0 mi NW 16.1 mph 24.2 mph N/A   Overcast
8:15 AM 6.8 °F -12.4 °F 3.2 °F 85% 29.27 in 0.5 mi NW 18.4 mph 24.2 mph N/A   Overcast
8:35 AM 5.0 °F -13.0 °F 3.2 °F 92% 29.30 in 0.5 mi NNW 15.0 mph 24.2 mph N/A   Overcast
8:55 AM 3.2 °F -15.9 °F 1.4 °F 92% 29.31 in 0.2 mi NNW 16.1 mph 26.5 mph N/A   Overcast
9:15 AM 3.2 °F -17.1 °F 1.4 °F 92% 29.32 in 0.5 mi NNW 18.4 mph 26.5 mph N/A   Overcast
9:35 AM 3.2 °F -16.5 °F -0.4 °F 85% 29.34 in 0.5 mi North 17.3 mph 28.8 mph N/A   Overcast
9:55 AM 3.2 °F -17.6 °F -0.4 °F 85% 29.34 in 0.5 mi NNW 19.6 mph 26.5 mph N/A   Overcast
10:15 AM 1.4 °F -17.6 °F -0.4 °F 92% 29.36 in 0.8 mi NNW 15.0 mph - N/A   Overcast
10:35 AM 3.2 °F -15.9 °F -0.4 °F 85% 29.36 in 1.0 mi NNW 16.1 mph - N/A   Overcast
10:55 AM 1.4 °F -19.4 °F -2.2 °F 85% 29.37 in 0.5 mi NNW 18.4 mph 21.9 mph N/A   Overcast
11:15 AM 1.4 °F -15.3 °F -2.2 °F 85% 29.38 in 0.8 mi NNW 11.5 mph 16.1 mph N/A   Overcast
11:35 AM 1.4 °F -18.2 °F -2.2 °F 85% 29.38 in 0.5 mi NNW 16.1 mph 20.7 mph N/A   Overcast
11:55 AM 1.4 °F -18.8 °F -4.0 °F 78% 29.39 in 0.8 mi NNW 17.3 mph - N/A   Overcast
12:15 PM 1.4 °F -18.8 °F -4.0 °F 78% 29.39 in 1.0 mi NNW 17.3 mph 23.0 mph N/A   Overcast
12:35 PM -0.4 °F -19.9 °F -5.8 °F 78% 29.40 in 0.8 mi NNW 15.0 mph - N/A   Overcast
12:55 PM -0.4 °F -19.9 °F -5.8 °F 78% 29.40 in 1.0 mi NNW 15.0 mph - N/A   Overcast
1:15 PM 1.4 °F -14.5 °F -4.0 °F 78% 29.40 in 1.2 mi NW 10.4 mph 16.1 mph N/A   Overcast
1:35 PM 1.4 °F -13.5 °F -4.0 °F 78% 29.40 in 1.0 mi NW 9.2 mph - N/A   Overcast
1:55 PM 1.4 °F -16.1 °F -4.0 °F 78% 29.40 in 1.5 mi WNW 12.7 mph 16.1 mph N/A   Overcast
2:15 PM 1.4 °F -14.5 °F -4.0 °F 78% 29.41 in 2.0 mi NW 10.4 mph - N/A   Overcast
2:35 PM 1.4 °F -13.5 °F -2.2 °F 85% 29.42 in 0.8 mi NW 9.2 mph - N/A   Overcast
2:55 PM 1.4 °F -12.5 °F -2.2 °F 85% 29.42 in 0.8 mi NW 8.1 mph - N/A   Overcast
3:15 PM 1.4 °F -9.9 °F -2.2 °F 85% 29.43 in 0.8 mi NNW 5.8 mph - N/A   Overcast
3:35 PM 1.4 °F -8.3 °F -0.4 °F 92% 29.44 in 0.5 mi WNW 4.6 mph - N/A   Overcast
3:55 PM 1.4 °F -8.3 °F -0.4 °F 92% 29.44 in 0.5 mi NW 4.6 mph - N/A   Overcast
4:15 PM 1.4 °F - -0.4 °F 92% 29.45 in 1.8 mi Calm Calm - N/A   Overcast
4:35 PM 3.2 °F -10.3 °F -0.4 °F 85% 29.45 in 1.2 mi WNW 8.1 mph - N/A   Overcast
4:55 PM 3.2 °F -12.2 °F 1.4 °F 92% 29.45 in 1.2 mi West 10.4 mph 20.7 mph N/A   Overcast
5:15 PM 5.0 °F -13.6 °F 1.4 °F 85% 29.46 in 1.0 mi WNW 16.1 mph 20.7 mph N/A   Overcast
5:35 PM 3.2 °F -13.9 °F 1.4 °F 92% 29.47 in 1.8 mi WNW 12.7 mph - N/A   Overcast
5:55 PM 3.2 °F -9.1 °F 1.4 °F 92% 29.49 in 0.5 mi North 6.9 mph - N/A   Overcast
6:15 PM 1.4 °F -12.5 °F -0.4 °F 92% 29.50 in 1.0 mi NNW 8.1 mph - N/A   Overcast
6:35 PM 1.4 °F -9.9 °F -0.4 °F 92% 29.51 in 0.8 mi North 5.8 mph - N/A   Overcast
6:55 PM 1.4 °F - -0.4 °F 92% 29.52 in 0.8 mi Calm Calm - N/A   Overcast
7:15 PM 1.4 °F -6.2 °F -0.4 °F 92% 29.52 in 1.0 mi NNE 3.5 mph - N/A   Overcast
7:35 PM 1.4 °F - -2.2 °F 85% 29.53 in 1.2 mi Calm Calm - N/A   Overcast
7:55 PM 1.4 °F - -2.2 °F 85% 29.53 in 0.8 mi Calm Calm - N/A   Overcast
8:15 PM 1.4 °F - -2.2 °F 85% 29.53 in 1.0 mi Calm Calm - N/A   Overcast
8:35 PM 1.4 °F -8.3 °F -2.2 °F 85% 29.53 in 1.0 mi East 4.6 mph - N/A   Overcast
8:55 PM -0.4 °F -15.7 °F -2.2 °F 92% 29.53 in 0.8 mi WSW 9.2 mph - N/A   Overcast
9:15 PM 1.4 °F -12.5 °F -0.4 °F 92% 29.53 in 1.2 mi WSW 8.1 mph 17.3 mph N/A   Overcast
9:35 PM -0.4 °F -15.7 °F -2.2 °F 92% 29.53 in 1.2 mi West 9.2 mph - N/A   Overcast
9:55 PM -0.4 °F -18.4 °F -2.2 °F 92% 29.54 in 2.0 mi West 12.7 mph - N/A   Overcast
10:15 PM -0.4 °F -19.2 °F -2.2 °F 92% 29.54 in 1.2 mi West 13.8 mph 19.6 mph N/A   Overcast
10:35 PM -0.4 °F -18.4 °F -2.2 °F 92% 29.54 in 1.0 mi West 12.7 mph 17.3 mph N/A   Overcast
10:55 PM -0.4 °F -13.4 °F -2.2 °F 92% 29.55 in 1.2 mi West 6.9 mph - N/A   Overcast
11:15 PM -0.4 °F -14.7 °F -2.2 °F 92% 29.55 in 1.0 mi WNW 8.1 mph - N/A   Overcast
11:35 PM -0.4 °F -15.7 °F -2.2 °F 92% 29.56 in 1.2 mi WNW 9.2 mph - N/A   Overcast
11:55 PM -0.4 °F -17.6 °F -4.0 °F 85% 29.55 in 2.0 mi West 11.5 mph 17.3 mph N/A   Overcast